Regional Weather Roundup
Issued by NWS New Orleans/Baton Rouge, LA

Home | Current Version | Previous Version | Text Only | Print | Product List | Glossary Off
Versions: 1 2 3 4 5 6 7 8 9 10 11 12 13 14 15 16 17 18 19 20 21 22 23 24 25 26 27 28 29 30 31 32 33 34 35 36 37 38 39 40 41 42 43 44 45 46 47 48 49 50

859
ASUS44 KLIX 202201
RWRLIX
NEW ORLEANS REGIONAL WEATHER ROUNDUP
NATIONAL WEATHER SERVICE NEW ORLEANS LA
400 PM CST THU NOV 20 2014

NOTE: "FAIR" INDICATES FEW OR NO CLOUDS BELOW 12,000 FEET WITH NO
      SIGNIFICANT WEATHER AND/OR OBSTRUCTIONS TO VISIBILITY.
      SKY/WX - SKY CONDITION AND SIGNIFICANT WEATHER.
      TMP - AIR TEMPERATURE.     DP    - DEWPOINT TEMPERATURE.
      RH  - RELATIVE HUMIDITY.   PRES  - PRESSURE.
      HI  - HEAT INDEX.          WCI   - WIND CHILL INDEX.

*  THESE STATIONS ARE NOT NWS OR FAA STATIONS AND ARE NOT UNDER
   NWS QUALITY CONTROL.

LAZ038-040-048-061>063-065>067-069-202300-
SOUTHEAST LOUISIANA

CITY           SKY/WX    TMP DP  RH WIND       PRES   REMARKS
N.O. AUDUBON     N/A     67  47  49 MISG        N/A
N.O. INTL ARPT MOSUNNY   66  46  48 S13       30.20S
N.O. LAKEFRONT CLOUDY    66  44  45 SE10      30.22R
N.O. DOWNTOWN*   N/A     66  43  42 S8        30.21S
SLIDELL        MOSUNNY   65  43  44 S9        30.21R
BATON ROUGE    CLOUDY    68  45  43 S7        30.17S
BOOTHVILLE     SUNNY     65  45  48 E6        30.23R
BELLE CHASSE   MOSUNNY   67  42  40 S10       30.21R
BOGALUSA*        N/A     68  43  39 SW5       30.21R
NEW ROADS*       N/A     69  47  44 S5        30.17S
GONZALES*      NOT AVBL
HAMMOND*       CLOUDY    66  43  42 SE8       30.21R
HOUMA*         MOSUNNY   66  46  48 SE12      30.20S
PORT FOURCHON* NOT AVBL

$$

MSZ070-080>082-202300-
SOUTHERN MISSISSIPPI

CITY           SKY/WX    TMP DP  RH WIND       PRES   REMARKS
MCCOMB         MOSUNNY   66  44  45 S8        30.18R
GULFPORT       SUNNY     63  43  48 S6        30.22R
BILOXI         SUNNY     62  46  55 SW9       30.22S
PASCAGOULA     CLEAR     63  47  55 S6        30.22S
STENNIS ARPT*  MOSUNNY   64  36  34 S9        30.22R

$$

COASTAL OBSERVATIONS
LAKE AND NEARSHORE STATIONS

STATION/POSITION TIME  TEMP    WIND        PRES    WAVE
                       AIR SEA DIR/SP/G            HT/PER
                 (UTC) (F)     (DEG/KT/KT) (MB)    (FT/S)
PASCAGOULA       2100   63     180/  6/  7 1022.8
WAVELAND YACHT   2100   61     190/  8/ 13 1022.4
GRAND ISLE       2100   64 56  120/  6/  8 1023.6
SOUTHWEST PASS   2100   75 73              1023.5
NEW CANAL        2100   65 54  220/  1/  4 1023.1
SHELL BEACH      2100   63 50  150/ 10/ 13 1023.1

OFFSHORE STATIONS

STATION/POSITION TIME  TEMP    WIND        PRES    WAVE
                       AIR SEA DIR/SP/G            HT/PER
                 (UTC) (F)     (DEG/KT/KT) (MB)    (FT/S)
64 S DAUPHIN ISL 2118   63 74   70/  8/ 10 1023.9    1/ 6

$$




USA.gov is the U.S. government's official web portal to all federal, state and local government web resources and services.